Flag for Netherlands Weather past 2 weeks in Haarlem, Netherlands

Now
61 °F

Broken clouds.


Feels Like: 61 °F
Forecast: 57 / 62 °F
Wind: 14 mph from Southwest

Location: Amsterdam Schiphol Airport

Current Time: Aug 30, 2014 at 8:50:42 AM

Latest Report: Aug 30, 2014 at 7:55 AM


Visibility: N/A

Pressure: 29.92 "Hg

Humidity: 100%

Dew point: 61 °F

Location of HaarlemLocation

Historic Weather in Haarlem — Graph

°F

Haarlem temperature yesterday

Maximum temperature yesterday: 70 °F (at 1:25 PM)
Minimum temperature yesterday: 57 °F (at 12:55 AM)
Average temperature yesterday: 63 °F

Past Weeks' High & Low Weather Summary

 TemperatureHumidityPressure
High70 °F (Aug 27, 3:55 PM)100% (Aug 17, 2:55 PM)30.07 "Hg (Aug 17, 2:55 PM)
Low46 °F (Aug 21, 5:55 AM)53% (Aug 27, 3:55 PM)29.59 "Hg (Aug 18, 3:55 AM)
Average58 °F83%29.89 "Hg
* Reported Aug 15 7:55 AM — Aug 30 7:25 AM, Haarlem, Weather by CustomWeather, © 2014

Note: Actual official high and low records may vary slightly from our data, if they occured in-between our weather recording intervals... More about our weather records

Advertising

Haarlem weather history for previous 24 hours

 ConditionsComfort  
Time TempWeatherWind HumidityBarometerVisibility
7:25 AM
Aug 30
61 °FPassing clouds.14 mph94%29.92 "Hg6 mi
6:55 AM61 °FPassing clouds.14 mph94%29.92 "HgN/A
6:25 AM61 °FPartly cloudy.15 mph94%29.92 "HgN/A
5:55 AM61 °FPartly cloudy.15 mph94%29.92 "HgN/A
5:25 AM61 °FRain. Partly cloudy.16 mph94%29.92 "Hg4 mi
4:55 AM61 °FPassing clouds.14 mph94%29.92 "Hg5 mi
4:25 AM61 °FPartly cloudy.16 mph94%29.92 "HgN/A
3:55 AM61 °FPassing clouds.13 mph94%29.92 "HgN/A
3:25 AM61 °FPassing clouds.14 mph94%29.92 "HgN/A
2:55 AM61 °FPassing clouds.15 mph94%29.92 "HgN/A
2:25 AM61 °FPassing clouds.13 mph94%29.92 "HgN/A
1:55 AM61 °FPassing clouds.14 mph94%29.92 "HgN/A
1:25 AM61 °FLight rain. Passing clouds.15 mph88%29.92 "HgN/A
12:55 AM61 °FPassing clouds.14 mph88%29.92 "HgN/A
12:25 AM63 °FPassing clouds.13 mph83%29.95 "HgN/A
11:55 PM
Aug 29
61 °FPassing clouds.13 mph88%29.95 "HgN/A
11:25 PM61 °FPassing clouds.12 mph88%29.95 "HgN/A
10:55 PM61 °FPassing clouds.12 mph88%29.95 "HgN/A
8:55 PM63 °FPassing clouds.16 mph77%29.92 "HgN/A
8:25 PM64 °FPassing clouds.16 mph73%29.92 "HgN/A
7:55 PM64 °FPassing clouds.16 mph73%29.92 "HgN/A
7:25 PM64 °FPassing clouds.18 mph73%29.92 "HgN/A
6:55 PM66 °FPassing clouds.21 mph68%29.95 "HgN/A
6:25 PM66 °FPassing clouds.20 mph68%29.95 "HgN/A
5:55 PM66 °FPassing clouds.20 mph68%29.95 "HgN/A
5:25 PM68 °FPassing clouds.21 mph64%29.95 "HgN/A
4:55 PM68 °FPassing clouds.20 mph64%29.95 "HgN/A
4:25 PM68 °FPassing clouds.18 mph64%29.95 "HgN/A
3:55 PM68 °FPassing clouds.21 mph64%29.95 "HgN/A
3:25 PM68 °FPassing clouds.23 mph64%29.95 "HgN/A
2:55 PM68 °FPassing clouds.18 mph60%29.95 "HgN/A
2:25 PM68 °FPassing clouds.18 mph60%29.95 "HgN/A
1:55 PM70 °FPassing clouds.16 mph60%29.95 "HgN/A
1:25 PM70 °FPassing clouds.18 mph64%29.95 "HgN/A
12:55 PM68 °FPassing clouds.18 mph64%29.95 "HgN/A
12:25 PM66 °FPassing clouds.16 mph73%29.95 "HgN/A
11:55 AM68 °FSprinkles. Scattered clouds.16 mph69%29.95 "HgN/A
11:25 AM66 °FScattered showers. Scattered clouds.16 mph73%29.95 "HgN/A
10:55 AM64 °FScattered clouds.17 mph73%29.95 "HgN/A
10:25 AM64 °FScattered clouds.17 mph78%29.95 "HgN/A
9:55 AM64 °FScattered clouds.10 mph83%29.95 "HgN/A
9:25 AM63 °FScattered clouds.10 mph88%29.92 "HgN/A
8:55 AM61 °FPassing clouds.10 mph94%29.92 "HgN/A
8:25 AM59 °FScattered clouds.9 mph100%29.92 "HgN/A
Weather by CustomWeather, © 2014

See weather overviewHow to use our weather pages